Location: Colonia Mina de C?rbuni
(46.1667°N, 22.7167°E)
Time: 16:01:45
(UTC+00:00)

S-56A Canister/Altair - Pass Details

Date: 19 April 2024
Orbit: 638 x 2488 km, 38.9° (Epoch: 26 May)

Event Time Altitude Azimuth Distance (km) Brightness Sun altitude
Rises 21:36:01 0° 274° (W) 4,483 11.7 -31.1°
Reaches altitude 10° 21:39:23 10° 261° (W) 3,782 11.1 -31.2°
Enters shadow 21:44:35 23° 230° (SW) 3,249 10.4 -31.4°
